[Iaude] MPEC J29: 2020 JE [a=1.96,e=0.52,i=9.7,H=26.2]

mpec at marsden.cfa.harvard.edu mpec at marsden.cfa.harvard.edu
Sun May 3 22:08:51 EDT 2020


M.P.E.C. 2020-J29                                   Issued 2020 May 4, 02:07 UT

     The Minor Planet Electronic Circulars contain information on unusual
         minor planets and routine data on comets.  They are published
    on behalf of Division F of the International Astronomical Union by the
          Minor Planet Center, Smithsonian Astrophysical Observatory,
                          Cambridge, MA 02138, U.S.A.

             Prepared using the Tamkin Foundation Computer Network

                              MPC at CFA.HARVARD.EDU
            URL https://www.minorplanetcenter.net/    ISSN 1523-6714

                                    2020 JE                                     


Observations:
     K20J00E* C2020 05 02.35691 15 54 13.94 -10 40 52.9          20.2 GVEJ029G96
     K20J00E  C2020 05 02.36219 15 54 18.41 -10 42 05.5          20.1 GVEJ029G96
     K20J00E  C2020 05 02.36748 15 54 22.80 -10 43 18.0          20.4 GVEJ029G96
     K20J00E  C2020 05 02.44267 15 55 27.45 -11 00 37.5          20.9 GVEJ029I52
     K20J00E  C2020 05 02.44416 15 55 28.70 -11 00 58.2          20.5 GVEJ029I52
     K20J00E  C2020 05 02.44565 15 55 30.01 -11 01 19.1          20.3 GVEJ029I52
     K20J00E  C2020 05 02.44714 15 55 31.34 -11 01 40.2          20.2 GVEJ029I52
     K20J00E  C2020 05 03.37657 16 11 56.52 -15 02 20.5          20.1 GVEJ029G96
     K20J00E  C2020 05 03.37744 16 11 57.48 -15 02 35.2          20.6 GVEJ029G96
     K20J00E  C2020 05 03.37832 16 11 58.48 -15 02 50.0          20.1 GVEJ029G96
     K20J00E  C2020 05 03.37919 16 11 59.45 -15 03 04.8          20.0 GVEJ029G96
     K20J00E IC2020 05 04.03510016 26 19.08 -18 24 21.9          19.9 GVEJ029L01
     K20J00E bC2020 05 04.03760416 26 22.49 -18 25 10.8          20.2 GVEJ029L01
     K20J00E bC2020 05 04.04010716 26 25.95 -18 26 00.0          20.0 GVEJ029L01
     K20J00E IC2020 05 04.04219316 26 28.76 -18 26 40.9          20.0 GVEJ029L01

Observer details:
G96 Mt. Lemmon Survey.  Observer G. J. Leonard.  Measurers E. J. Christensen, 
   G. A. Farneth, D. C. Fuls, A. R. Gibbs, A. D. Grauer, H. Groeller, R. A. 
   Kowalski, S. M. Larson, G. J. Leonard, T. A. Pruyne, D. Rankin, R. L. Seaman,
    F. C. Shelly, K. W. Wierzchos.  1.5-m reflector + 10K CCD.
I52 Steward Observatory, Mt. Lemmon Station.  Observer R. A. Kowalski.  
    Measurers E. J. Christensen, G. A. Farneth, D. C. Fuls, A. R. Gibbs, A. D. 
   Grauer, H. Groeller, R. A. Kowalski, S. M. Larson, G. J. Leonard, T. A. 
   Pruyne, D. Rankin, R. L. Seaman, F. C. Shelly, K. W. Wierzchos.  1.0-m 
   reflector + CCD.
L01 Visnjan Observatory, Tican.  Observer K. Korlevic.  1.0-m f/2.9 reflector + 
   CCD.

Orbital elements:
2020 JE                                                  Earth MOID = 0.0171 AU
Epoch 2020 May 31.0 TT = JDT 2459000.5                  Veres
M 356.72629              (2000.0)            P               Q
n   0.36021223     Peri.  223.91483     -0.01955522     +0.99262709
a   1.9562773      Node    45.36712     -0.86467202     +0.04327658
e   0.5188043      Incl.    9.67709     -0.50195607     -0.11321926
P   2.74           H   26.2           G   0.15           U   8
Residuals in seconds of arc
200502 G96  0.4+  0.1-    200502 I52  0.2-  0.1+    200503 G96  0.0   0.2+
200502 G96  0.5+  0.2-    200502 I52  0.2+  0.3-    200504 L01  0.2+  0.0
200502 G96  0.8-  0.1+    200503 G96  0.1-  0.4-    200504 L01  0.1-  0.1+
200502 I52  0.4+  0.3+    200503 G96  0.2-  0.2-    200504 L01  0.4+  0.0
200502 I52  0.3-  0.3+    200503 G96  0.0   0.1+    200504 L01  0.3-  0.0

Ephemeris:
2020 JE                  a,e,i = 1.96, 0.52, 10                  q = 0.9414
Date    TT    R. A. (2000) Decl.     Delta      r    Elong.  Phase     V
2020 04 04    14 21 15.9 +09 53 14   0.2575  1.2352   153.1    21.5    24.8
...
2020 04 19    14 40 46.1 +07 32 48   0.1381  1.1329   157.2    20.1    23.2
...
2020 04 27    15 06 21.1 +01 37 48   0.08129 1.0835   160.5    18.1    21.9
...
2020 05 03    16 04 49.8 -13 16 25   0.04439 1.0498   159.6    19.5    20.5
2020 05 04    16 25 28.2 -18 09 22   0.03950 1.0445   155.9    23.2    20.4
2020 05 05    16 53 02.7 -24 04 55   0.03537 1.0393   149.9    29.1    20.3
...
2020 05 11    22 31 11.7 -45 12 56   0.03825 1.0104    89.5    88.3    22.2
...
2020 05 19    00 56 52.7 -31 02 01   0.08446 0.9786    64.7   110.8    25.0
...
2020 06 03    01 42 55.3 -22 12 49   0.1835  0.9446    62.8   107.3    26.4

M. P. C. Staff               (C) Copyright 2020 MPC           M.P.E.C. 2020-J29




More information about the Iaude mailing list